Time,TemperatureF,DewpointF,PressureIn,WindDirection,WindDirectionDegrees,WindSpeedMPH,WindSpeedGustMPH,Humidity,HourlyPrecipIn,Conditions,Clouds,dailyrainin,SoftwareType,DateUTC
2013-04-30 00:01:00,44.0,42.0,30.36,North,352,2.0,10.0,94,0.00,,,0.12,,2013-04-30 07:01:00,
2013-04-30 00:11:00,44.0,42.0,30.36,North,352,2.0,10.0,94,0.00,,,0.12,,2013-04-30 07:11:00,
2013-04-30 00:21:00,44.0,42.0,30.36,North,357,5.0,13.0,92,0.00,,,0.06,,2013-04-30 07:21:00,
2013-04-30 00:31:00,44.0,42.0,30.36,North,355,6.0,18.0,93,0.00,,,0.06,,2013-04-30 07:31:00,
2013-04-30 00:41:00,44.0,42.0,30.36,North,355,6.0,18.0,93,0.00,,,0.06,,2013-04-30 07:41:00,
2013-04-30 00:52:00,45.0,42.0,30.36,NNW,340,4.0,15.0,90,0.00,,,0.06,,2013-04-30 07:52:00,
2013-04-30 01:02:00,44.0,41.0,30.36,North,350,6.0,14.0,89,0.00,,,0.06,,2013-04-30 08:02:00,
2013-04-30 01:11:00,44.0,41.0,30.36,North,350,6.0,14.0,89,0.00,,,0.06,,2013-04-30 08:11:00,
2013-04-30 01:21:00,44.0,41.0,30.36,North,0,6.0,13.0,89,0.00,,,0.05,,2013-04-30 08:21:00,
2013-04-30 01:31:00,45.0,42.0,30.37,North,4,4.0,10.0,88,0.00,,,0.05,,2013-04-30 08:31:00,
2013-04-30 01:41:00,45.0,42.0,30.37,North,4,4.0,10.0,88,0.00,,,0.05,,2013-04-30 08:41:00,
2013-04-30 01:52:00,45.0,42.0,30.37,NNW,334,4.0,14.0,88,0.00,,,0.05,,2013-04-30 08:52:00,
2013-04-30 02:01:00,44.0,41.0,30.37,NNE,15,6.0,12.0,88,0.00,,,0.05,,2013-04-30 09:01:00,
2013-04-30 02:11:00,44.0,41.0,30.37,NNE,15,6.0,12.0,88,0.00,,,0.05,,2013-04-30 09:11:00,
2013-04-30 02:21:00,44.0,41.0,30.37,NE,44,6.0,13.0,89,0.00,,,0.04,,2013-04-30 09:21:00,
2013-04-30 02:32:00,44.0,42.0,30.37,NE,50,0.0,9.0,91,0.00,,,0.04,,2013-04-30 09:32:00,
2013-04-30 02:42:00,44.0,42.0,30.37,NE,50,0.0,9.0,91,0.00,,,0.04,,2013-04-30 09:42:00,
2013-04-30 02:52:00,44.0,42.0,30.37,NE,47,0.0,8.0,92,0.00,,,0.04,,2013-04-30 09:52:00,
2013-04-30 03:02:00,44.0,42.0,30.37,North,355,1.0,8.0,93,0.00,,,0.04,,2013-04-30 10:02:00,
2013-04-30 03:11:00,44.0,42.0,30.37,North,355,1.0,8.0,93,0.00,,,0.04,,2013-04-30 10:11:00,
2013-04-30 03:22:00,44.0,43.0,30.37,NW,324,6.0,19.0,95,0.00,,,0.02,,2013-04-30 10:22:00,
2013-04-30 03:32:00,43.0,42.0,30.38,North,11,0.0,11.0,98,0.00,,,0.02,,2013-04-30 10:32:00,
2013-04-30 03:41:00,43.0,42.0,30.38,North,11,0.0,11.0,98,0.00,,,0.02,,2013-04-30 10:41:00,
2013-04-30 03:52:00,43.0,43.0,30.37,North,8,6.0,10.0,99,0.00,,,0.02,,2013-04-30 10:52:00,
2013-04-30 04:01:00,43.0,43.0,30.38,NE,53,6.0,9.0,100,0.00,,,0.02,,2013-04-30 11:01:00,
2013-04-30 04:11:00,43.0,43.0,30.38,NE,53,6.0,9.0,100,0.00,,,0.02,,2013-04-30 11:11:00,
2013-04-30 04:21:00,43.0,43.0,30.38,NE,35,6.0,10.0,100,0.00,,,0.00,,2013-04-30 11:21:00,
2013-04-30 04:31:00,43.0,43.0,30.38,North,352,0.0,9.0,100,0.00,,,0.00,,2013-04-30 11:31:00,
2013-04-30 04:42:00,43.0,43.0,30.38,North,352,0.0,9.0,100,0.00,,,0.00,,2013-04-30 11:42:00,
2013-04-30 04:51:00,44.0,44.0,30.39,North,5,8.0,21.0,100,0.00,,,0.00,,2013-04-30 11:51:00,
2013-04-30 05:01:00,43.0,43.0,30.39,NE,40,1.0,12.0,100,0.00,,,0.00,,2013-04-30 12:01:00,
2013-04-30 05:11:00,43.0,43.0,30.39,NE,40,1.0,12.0,100,0.00,,,0.00,,2013-04-30 12:11:00,
2013-04-30 05:21:00,42.0,42.0,30.39,NE,43,4.0,10.0,100,0.01,,,0.01,,2013-04-30 12:21:00,
2013-04-30 05:31:00,42.0,42.0,30.39,North,0,0.0,0.0,100,0.01,,,0.01,,2013-04-30 12:31:00,
2013-04-30 05:41:00,42.0,42.0,30.39,North,0,0.0,0.0,100,0.01,,,0.01,,2013-04-30 12:41:00,
2013-04-30 05:51:00,42.0,42.0,30.39,North,0,4.0,4.0,100,0.01,,,0.01,,2013-04-30 12:51:00,
2013-04-30 06:01:00,41.0,41.0,30.39,ENE,68,0.0,7.0,100,0.01,,,0.01,,2013-04-30 13:01:00,
2013-04-30 06:11:00,41.0,41.0,30.39,ENE,68,0.0,7.0,100,0.01,,,0.01,,2013-04-30 13:11:00,
2013-04-30 06:21:00,42.0,42.0,30.39,North,0,2.0,5.0,100,0.00,,,0.01,,2013-04-30 13:21:00,
2013-04-30 06:31:00,42.0,42.0,30.39,North,357,0.0,10.0,100,0.00,,,0.01,,2013-04-30 13:31:00,
2013-04-30 06:41:00,42.0,42.0,30.39,North,357,0.0,10.0,100,0.00,,,0.01,,2013-04-30 13:41:00,
2013-04-30 06:52:00,42.0,42.0,30.40,NNE,25,0.0,8.0,100,0.00,,,0.01,,2013-04-30 13:52:00,
2013-04-30 07:01:00,42.0,42.0,30.40,NE,51,7.0,9.0,100,0.00,,,0.01,,2013-04-30 14:01:00,
2013-04-30 07:11:00,42.0,42.0,30.41,ENE,67,7.0,11.0,100,0.00,,,0.01,,2013-04-30 14:11:00,
2013-04-30 07:21:00,42.0,42.0,30.41,ENE,67,7.0,11.0,100,0.00,,,0.01,,2013-04-30 14:21:00,
2013-04-30 07:31:00,43.0,43.0,30.42,NE,49,3.0,11.0,100,0.00,,,0.01,,2013-04-30 14:31:00,
2013-04-30 07:41:00,43.0,43.0,30.42,NE,49,3.0,11.0,100,0.00,,,0.01,,2013-04-30 14:41:00,
2013-04-30 07:52:00,43.0,43.0,30.42,NE,47,4.0,7.0,100,0.00,,,0.01,,2013-04-30 14:52:00,
2013-04-30 08:01:00,43.0,43.0,30.42,ENE,61,5.0,8.0,100,0.00,,,0.01,,2013-04-30 15:01:00,
2013-04-30 08:11:00,43.0,43.0,30.42,ENE,61,5.0,8.0,100,0.00,,,0.01,,2013-04-30 15:11:00,
2013-04-30 08:21:00,44.0,44.0,30.42,ENE,65,0.0,8.0,100,0.00,,,0.01,,2013-04-30 15:21:00,
2013-04-30 08:32:00,44.0,44.0,30.42,NNW,330,1.0,18.0,100,0.00,,,0.02,,2013-04-30 15:32:00,
2013-04-30 08:42:00,44.0,44.0,30.42,NNW,330,1.0,18.0,100,0.00,,,0.02,,2013-04-30 15:42:00,
2013-04-30 08:52:00,45.0,45.0,30.42,North,2,0.0,12.0,100,0.01,,,0.02,,2013-04-30 15:52:00,
2013-04-30 09:02:00,46.0,46.0,30.43,NNW,336,8.0,9.0,100,0.01,,,0.02,,2013-04-30 16:02:00,
2013-04-30 09:12:00,46.0,46.0,30.43,NNW,336,8.0,9.0,100,0.01,,,0.02,,2013-04-30 16:12:00,
2013-04-30 09:22:00,46.0,46.0,30.43,North,2,0.0,9.0,100,0.01,,,0.02,,2013-04-30 16:22:00,
2013-04-30 09:32:00,47.0,47.0,30.43,WNW,299,7.0,12.0,100,0.01,,,0.02,,2013-04-30 16:32:00,
2013-04-30 09:42:00,47.0,47.0,30.43,WNW,299,7.0,12.0,100,0.01,,,0.02,,2013-04-30 16:42:00,
2013-04-30 09:52:00,48.0,48.0,30.43,NW,312,7.0,10.0,100,0.00,,,0.02,,2013-04-30 16:52:00,
2013-04-30 10:02:00,47.0,47.0,30.43,WNW,303,7.0,9.0,100,0.00,,,0.02,,2013-04-30 17:02:00,
2013-04-30 10:11:00,47.0,47.0,30.44,NNW,341,8.0,16.0,100,0.00,,,0.02,,2013-04-30 17:11:00,
2013-04-30 10:22:00,47.0,47.0,30.44,NNW,341,8.0,16.0,100,0.00,,,0.02,,2013-04-30 17:22:00,
2013-04-30 10:32:00,48.0,48.0,30.44,NNE,33,6.0,14.0,100,0.00,,,0.02,,2013-04-30 17:32:00,
2013-04-30 10:41:00,50.0,50.0,30.45,NNW,347,6.0,16.0,100,0.00,,,0.02,,2013-04-30 17:41:00,
2013-04-30 10:52:00,50.0,50.0,30.45,NNW,347,6.0,16.0,100,0.00,,,0.02,,2013-04-30 17:52:00,
2013-04-30 11:01:00,51.0,50.0,30.45,North,4,13.0,14.0,96,0.00,,,0.02,,2013-04-30 18:01:00,
2013-04-30 11:11:00,50.0,46.0,30.45,WNW,295,14.0,16.0,86,0.00,,,0.02,,2013-04-30 18:11:00,
2013-04-30 11:22:00,50.0,46.0,30.45,WNW,295,14.0,16.0,86,0.00,,,0.02,,2013-04-30 18:22:00,
2013-04-30 11:32:00,50.0,42.0,30.45,NNW,333,16.0,23.0,73,0.00,,,0.02,,2013-04-30 18:32:00,
2013-04-30 11:41:00,51.0,42.0,30.46,NNW,333,13.0,21.0,70,0.00,,,0.02,,2013-04-30 18:41:00,
2013-04-30 11:52:00,51.0,42.0,30.46,NNW,333,13.0,21.0,70,0.00,,,0.02,,2013-04-30 18:52:00,
2013-04-30 12:01:00,51.0,40.0,30.46,NNW,330,14.0,19.0,66,0.00,,,0.02,,2013-04-30 19:01:00,
2013-04-30 12:11:00,50.0,38.0,30.47,NW,306,13.0,20.0,64,0.00,,,0.02,,2013-04-30 19:11:00,
2013-04-30 12:21:00,50.0,38.0,30.47,NW,306,13.0,20.0,64,0.00,,,0.02,,2013-04-30 19:21:00,
2013-04-30 12:31:00,49.0,42.0,30.47,NNW,333,14.0,27.0,77,0.00,,,0.02,,2013-04-30 19:31:00,
2013-04-30 12:41:00,48.0,47.0,30.47,NW,323,8.0,18.0,96,0.00,,,0.02,,2013-04-30 19:41:00,
2013-04-30 12:52:00,48.0,47.0,30.47,NW,323,8.0,18.0,96,0.00,,,0.02,,2013-04-30 19:52:00,
2013-04-30 13:01:00,48.0,45.0,30.47,NW,315,13.0,19.0,91,0.00,,,0.02,,2013-04-30 20:01:00,
2013-04-30 13:11:00,48.0,45.0,30.47,NW,315,13.0,19.0,91,0.00,,,0.02,,2013-04-30 20:11:00,
2013-04-30 13:21:00,49.0,45.0,30.47,NW,322,12.0,18.0,85,0.00,,,0.02,,2013-04-30 20:21:00,
2013-04-30 13:32:00,50.0,43.0,30.47,NW,320,12.0,21.0,77,0.00,,,0.02,,2013-04-30 20:32:00,
2013-04-30 13:42:00,50.0,43.0,30.47,NW,320,12.0,21.0,77,0.00,,,0.02,,2013-04-30 20:42:00,
2013-04-30 13:52:00,51.0,40.0,30.47,NW,324,16.0,21.0,67,0.00,,,0.02,,2013-04-30 20:52:00,
2013-04-30 14:01:00,51.0,38.0,30.48,WNW,302,14.0,20.0,60,0.00,,,0.02,,2013-04-30 21:01:00,
2013-04-30 14:11:00,52.0,38.0,30.48,NW,310,14.0,20.0,58,0.00,,,0.02,,2013-04-30 21:11:00,
2013-04-30 14:21:00,52.0,38.0,30.48,NW,310,14.0,20.0,58,0.00,,,0.02,,2013-04-30 21:21:00,
2013-04-30 14:32:00,52.0,36.0,30.48,NW,324,11.0,19.0,55,0.00,,,0.02,,2013-04-30 21:32:00,
2013-04-30 14:42:00,52.0,36.0,30.48,NW,324,11.0,19.0,55,0.00,,,0.02,,2013-04-30 21:42:00,
2013-04-30 14:53:00,54.0,36.0,30.49,NW,308,17.0,28.0,50,0.00,,,0.02,,2013-04-30 21:53:00,
2013-04-30 15:02:00,53.0,34.0,30.49,NW,313,13.0,23.0,48,0.00,,,0.02,,2013-04-30 22:02:00,
2013-04-30 15:12:00,54.0,31.0,30.49,NW,320,15.0,19.0,41,0.00,,,0.02,,2013-04-30 22:12:00,
2013-04-30 15:32:00,54.0,34.0,30.49,NW,306,14.0,20.0,46,0.00,,,0.02,,2013-04-30 22:32:00,
2013-04-30 15:41:00,54.0,34.0,30.49,NW,306,14.0,20.0,46,0.00,,,0.02,,2013-04-30 22:41:00,
2013-04-30 15:53:00,54.0,30.0,30.49,NW,322,15.0,22.0,40,0.00,,,0.02,,2013-04-30 22:53:00,
2013-04-30 16:02:00,54.0,32.0,30.49,NNW,327,13.0,24.0,43,0.00,,,0.02,,2013-04-30 23:02:00,
2013-04-30 16:11:00,54.0,30.0,30.48,NNW,330,15.0,23.0,40,0.00,,,0.02,,2013-04-30 23:11:00,
2013-04-30 16:32:00,54.0,30.0,30.49,NW,323,16.0,23.0,39,0.00,,,0.02,,2013-04-30 23:32:00,
2013-04-30 16:52:00,53.0,27.0,30.49,NW,326,12.0,21.0,36,0.00,,,0.02,,2013-04-30 23:52:00,
2013-04-30 17:01:00,53.0,27.0,30.49,NW,322,12.0,23.0,36,0.00,,,0.02,,2013-05-01 00:01:00,
2013-04-30 17:21:00,52.0,25.0,30.49,NW,317,14.0,27.0,35,0.00,,,0.02,,2013-05-01 00:21:00,
2013-04-30 17:31:00,52.0,28.0,30.49,NNW,337,16.0,25.0,40,0.00,,,0.02,,2013-05-01 00:31:00,
2013-04-30 17:51:00,52.0,30.0,30.49,NW,322,16.0,25.0,42,0.00,,,0.02,,2013-05-01 00:51:00,
2013-04-30 18:01:00,52.0,27.0,30.50,NNW,343,14.0,24.0,38,0.00,,,0.02,,2013-05-01 01:01:00,
2013-04-30 18:21:00,52.0,22.0,30.49,NNW,331,15.0,26.0,30,0.00,,,0.02,,2013-05-01 01:21:00,
2013-04-30 18:31:00,52.0,22.0,30.50,NNW,343,16.0,26.0,31,0.00,,,0.02,,2013-05-01 01:31:00,
2013-04-30 18:52:00,51.0,24.0,30.50,NNW,337,17.0,25.0,35,0.00,,,0.02,,2013-05-01 01:52:00,
2013-04-30 19:01:00,50.0,31.0,30.50,NNW,333,18.0,26.0,47,0.00,,,0.02,,2013-05-01 02:01:00,
2013-04-30 19:11:00,49.0,34.0,30.50,NNW,330,17.0,25.0,55,0.00,,,0.02,,2013-05-01 02:11:00,
2013-04-30 19:21:00,49.0,34.0,30.50,NNW,330,17.0,25.0,55,0.00,,,0.02,,2013-05-01 02:21:00,
2013-04-30 19:32:00,49.0,34.0,30.50,NNW,331,15.0,23.0,56,0.00,,,0.02,,2013-05-01 02:32:00,
2013-04-30 19:42:00,49.0,34.0,30.50,NNW,331,15.0,23.0,56,0.00,,,0.02,,2013-05-01 02:42:00,
2013-04-30 19:52:00,49.0,33.0,30.51,NW,324,11.0,23.0,53,0.00,,,0.02,,2013-05-01 02:52:00,
2013-04-30 20:01:00,48.0,33.0,30.51,NW,326,10.0,23.0,55,0.00,,,0.02,,2013-05-01 03:01:00,
2013-04-30 20:11:00,48.0,33.0,30.51,NW,326,10.0,23.0,55,0.00,,,0.02,,2013-05-01 03:11:00,
2013-04-30 20:21:00,48.0,34.0,30.51,NNW,343,11.0,20.0,58,0.00,,,0.02,,2013-05-01 03:21:00,
2013-04-30 20:32:00,47.0,35.0,30.51,NNW,344,7.0,16.0,62,0.00,,,0.02,,2013-05-01 03:32:00,
2013-04-30 20:42:00,47.0,35.0,30.51,NNW,344,7.0,16.0,62,0.00,,,0.02,,2013-05-01 03:42:00,
2013-04-30 20:53:00,47.0,36.0,30.51,North,1,4.0,14.0,66,0.00,,,0.02,,2013-05-01 03:53:00,
2013-04-30 21:02:00,46.0,36.0,30.52,NNW,344,6.0,11.0,69,0.00,,,0.02,,2013-05-01 04:02:00,
2013-04-30 21:12:00,46.0,38.0,30.52,North,351,6.0,13.0,73,0.00,,,0.02,,2013-05-01 04:12:00,
2013-04-30 21:22:00,46.0,38.0,30.52,North,351,6.0,13.0,73,0.00,,,0.02,,2013-05-01 04:22:00,
2013-04-30 21:32:00,46.0,39.0,30.53,North,355,7.0,14.0,76,0.00,,,0.02,,2013-05-01 04:32:00,
2013-04-30 21:42:00,46.0,39.0,30.53,North,355,7.0,14.0,76,0.00,,,0.02,,2013-05-01 04:42:00,
2013-04-30 21:52:00,45.0,38.0,30.53,North,2,4.0,11.0,77,0.00,,,0.02,,2013-05-01 04:52:00,
2013-04-30 22:02:00,45.0,39.0,30.53,North,1,7.0,13.0,78,0.00,,,0.02,,2013-05-01 05:02:00,
2013-04-30 22:11:00,45.0,39.0,30.53,North,1,7.0,13.0,78,0.00,,,0.02,,2013-05-01 05:11:00,
2013-04-30 22:21:00,45.0,39.0,30.53,North,2,0.0,11.0,78,0.00,,,0.02,,2013-05-01 05:21:00,
2013-04-30 22:32:00,44.0,38.0,30.54,North,357,3.0,11.0,80,0.00,,,0.02,,2013-05-01 05:32:00,
2013-04-30 22:41:00,44.0,39.0,30.54,North,9,0.0,11.0,81,0.00,,,0.02,,2013-05-01 05:41:00,
2013-04-30 22:52:00,44.0,39.0,30.54,North,9,0.0,11.0,81,0.00,,,0.02,,2013-05-01 05:52:00,
2013-04-30 23:01:00,44.0,39.0,30.54,NNE,30,0.0,8.0,84,0.00,,,0.02,,2013-05-01 06:01:00,
2013-04-30 23:11:00,44.0,39.0,30.54,NNE,30,0.0,8.0,84,0.00,,,0.02,,2013-05-01 06:11:00,
2013-04-30 23:21:00,44.0,40.0,30.54,NNE,22,6.0,9.0,85,0.00,,,0.02,,2013-05-01 06:21:00,
2013-04-30 23:32:00,43.0,39.0,30.55,NE,46,1.0,8.0,86,0.00,,,0.02,,2013-05-01 06:32:00,
2013-04-30 23:41:00,43.0,39.0,30.55,NE,46,1.0,8.0,86,0.00,,,0.02,,2013-05-01 06:41:00,
2013-04-30 23:52:00,43.0,39.0,30.55,North,1,7.0,9.0,87,0.00,,,0.02,,2013-05-01 06:52:00,